QPF
0.14 0.14 0.14 0.14 0.12 0.11 0.11 0.11 0.12 0.11 0.09 0.07 0.05 0.04 0.04 0.04 0.04 0.02 0.02 0.02 0.02 0.02 0.01 0.00 0.00 0.00 0.00 0.00 0.00 0.00 0.00 0.00 0.00 0.00 0.00 0.00 0.00 0.00
0.14 0.15 0.15 0.15 0.15 0.14 0.12 0.11 0.13 0.12 0.12 0.10 0.07 0.05 0.05 0.05 0.05 0.03 0.03 0.03 0.02 0.02 0.01 0.01 0.00 0.00 0.00 0.00 0.00 0.00 0.00 0.00 0.00 0.00 0.00 0.00 0.00 0.00
0.13 0.14 0.14 0.13 0.13 0.12 0.10 0.09 0.09 0.10 0.12 0.10 0.07 0.05 0.04 0.03 0.03 0.03 0.03 0.04 0.02 0.01 0.01 0.01 0.01 0.00 0.00 0.00 0.00 0.00 0.00 0.00 0.00 0.00 0.00 0.00 0.00 0.00
0.10 0.11 0.11 0.10 0.09 0.08 0.07 0.06 0.07 0.07 0.10 0.10 0.07 0.05 0.03 0.02 0.02 0.02 0.02 0.03 0.04 0.02 0.02 0.01 0.01 0.01 0.01 0.00 0.00 0.00 0.00 0.00 0.00 0.00 0.00 0.00 0.00 0.00
0.09 0.10 0.08 0.09 0.09 0.08 0.08 0.07 0.06 0.05 0.06 0.07 0.05 0.03 0.02 0.01 0.02 0.02 0.02 0.02 0.02 0.02 0.02 0.01 0.01 0.00 0.00 0.00 0.01 0.01 0.01 0.01 0.01 0.01 0.00 0.00 0.00 0.00
0.08 0.08 0.08 0.08 0.08 0.07 0.07 0.07 0.05 0.05 0.05 0.05 0.04 0.02 0.02 0.02 0.02 0.02 0.02 0.02 0.02 0.02 0.01 0.01 0.00 0.00 0.00 0.01 0.01 0.01 0.01 0.01 0.01 0.01 0.01 0.01 0.01 0.01
0.09 0.07 0.08 0.08 0.08 0.07 0.06 0.06 0.05 0.05 0.05 0.05 0.04 0.02 0.02 0.02 0.02 0.01 0.02 0.02 0.01 0.01 0.02 0.01 0.02 0.02 0.02 0.01 0.01 0.01 0.01 0.01 0.01 0.01 0.01 0.01 0.02 0.02
0.10 0.11 0.11 0.10 0.08 0.06 0.05 0.05 0.06 0.05 0.05 0.05 0.04 0.03 0.02 0.01 0.01 0.01 0.01 0.02 0.01 0.01 0.02 0.01 0.01 0.02 0.02 0.02 0.02 0.01 0.01 0.02 0.03 0.04 0.04 0.05 0.05 0.05
0.10 0.10 0.11 0.11 0.12 0.09 0.06 0.05 0.06 0.06 0.06 0.05 0.04 0.03 0.03 0.02 0.02 0.01 0.01 0.01 0.01 0.01 0.01 0.02 0.01 0.02 0.02 0.02 0.03 0.02 0.03 0.05 0.06 0.07 0.06 0.06 0.06 0.06
0.08 0.10 0.11 0.10 0.10 0.09 0.06 0.06 0.06 0.04 0.03 0.03 0.02 0.02 0.02 0.02 0.02 0.01 0.01 0.00 0.00 0.00 0.01 0.02 0.01 0.01 0.01 0.01 0.01 0.01 0.01 0.02 0.03 0.05 0.06 0.08 0.10 0.10
0.06 0.07 0.08 0.05 0.06 0.08 0.07 0.07 0.05 0.03 0.03 0.03 0.02 0.01 0.01 0.01 0.01 0.01 0.01 0.01 0.02 0.01 0.01 0.01 0.02 0.01 0.01 0.01 0.01 0.02 0.02 0.02 0.02 0.03 0.04 0.05 0.06 0.07
0.04 0.04 0.05 0.05 0.04 0.07 0.06 0.07 0.07 0.04 0.01 0.01 0.01 0.01 0.01 0.01 0.01 0.01 0.01 0.02 0.02 0.02 0.01 0.01 0.02 0.03 0.03 0.03 0.02 0.02 0.02 0.02 0.03 0.04 0.04 0.04 0.04 0.04
0.03 0.04 0.04 0.06 0.05 0.05 0.05 0.05 0.06 0.03 0.02 0.01 0.01 0.01 0.01 0.01 0.01 0.01 0.01 0.01 0.02 0.02 0.01 0.01 0.03 0.04 0.04 0.03 0.02 0.02 0.02 0.02 0.02 0.02 0.03 0.04 0.04 0.04
0.03 0.03 0.04 0.05 0.04 0.04 0.03 0.04 0.05 0.03 0.02 0.01 0.02 0.01 0.01 0.01 0.01 0.01 0.01 0.01 0.01 0.01 0.01 0.02 0.03 0.04 0.04 0.03 0.02 0.02 0.01 0.01 0.01 0.02 0.02 0.03 0.04 0.05
0.02 0.02 0.03 0.03 0.03 0.02 0.02 0.03 0.02 0.02 0.02 0.02 0.02 0.01 0.01 0.01 0.01 0.01 0.01 0.02 0.01 0.00 0.00 0.01 0.02 0.03 0.04 0.03 0.01 0.01 0.01 0.01 0.01 0.02 0.03 0.03 0.02 0.02
0.01 0.02 0.01 0.01 0.01 0.01 0.01 0.02 0.01 0.02 0.03 0.02 0.01 0.01 0.01 0.01 0.01 0.01 0.01 0.02 0.01 0.01 0.00 0.00 0.01 0.01 0.01 0.01 0.01 0.00 0.00 0.01 0.01 0.01 0.02 0.02 0.02 0.01
0.01 0.02 0.01 0.01 0.00 0.00 0.01 0.01 0.01 0.01 0.02 0.01 0.00 0.01 0.01 0.01 0.01 0.01 0.01 0.01 0.01 0.01 0.00 0.00 0.00 0.00 0.00 0.00 0.00 0.00 0.01 0.01 0.01 0.01 0.01 0.01 0.00 0.00
0.01 0.01 0.01 0.00 0.00 0.00 0.01 0.01 0.02 0.01 0.01 0.01 0.01 0.01 0.01 0.01 0.01 0.01 0.01 0.01 0.01 0.01 0.00 0.00 0.00 0.00 0.00 0.00 0.00 0.00 0.01 0.01 0.01 0.01 0.01 0.01 0.00 0.00
0.01 0.01 0.00 0.00 0.00 0.00 0.00 0.01 0.01 0.01 0.01 0.01 0.01 0.00 0.01 0.01 0.01 0.01 0.01 0.01 0.01 0.01 0.00 0.00 0.01 0.01 0.01 0.00 0.00 0.00 0.00 0.00 0.00 0.00 0.00 0.00 0.00 0.00
0.01 0.01 0.01 0.00 0.00 0.00 0.00 0.00 0.00 0.01 0.01 0.01 0.01 0.01 0.01 0.01 0.01 0.01 0.00 0.00 0.00 0.00 0.00 0.00 0.01 0.01 0.01 0.00 0.00 0.00 0.00 0.00 0.00 0.00 0.00 0.00 0.00 0.00
0.00 0.00 0.01 0.00 0.00 0.00 0.00 0.00 0.00 0.00 0.00 0.00 0.00 0.00 0.00 0.00 0.01 0.01 0.00 0.00 0.00 0.00 0.00 0.00 0.00 0.00 0.00 0.00 0.00 0.00 0.00 0.00 0.00 0.00 0.00 0.00 0.00 0.00
0.00 0.00 0.00 0.00 0.00 0.00 0.00 0.00 0.00 0.00 0.00 0.00 0.00 0.00 0.00 0.00 0.01 0.00 0.00 0.00 0.00 0.00 0.00 0.00 0.00 0.00 0.00 0.00 0.00 0.00 0.00 0.00 0.00 0.00 0.00 0.00 0.00 0.00
0.00 0.00 0.00 0.00 0.00 0.00 0.00 0.00 0.00 0.00 0.00 0.00 0.00 0.00 0.00 0.00 0.00 0.00 0.00 0.00 0.00 0.00 0.00 0.00 0.00 0.00 0.00 0.00 0.00 0.00 0.00 0.00 0.00 0.00 0.00 0.00 0.00 0.00
MSLP
1013.97 1014.46 1014.97 1015.47 1015.91 1016.28 1016.56 1016.72 1016.78 1016.75 1016.66 1016.55 1016.45 1016.36 1016.32 1016.32 1016.36 1016.42 1016.51 1016.63 1016.77 1016.95 1017.17 1017.42 1017.71 1018.02 1018.33 1018.62 1018.86 1019.06 1019.20 1019.30 1019.37 1019.44 1019.50 1019.58 1019.65 1019.70
1013.72 1014.19 1014.66 1015.13 1015.55 1015.92 1016.20 1016.39 1016.50 1016.53 1016.50 1016.44 1016.37 1016.31 1016.26 1016.23 1016.22 1016.24 1016.28 1016.35 1016.47 1016.63 1016.85 1017.12 1017.43 1017.76 1018.09 1018.40 1018.66 1018.86 1019.00 1019.11 1019.18 1019.26 1019.34 1019.42 1019.51 1019.58
1013.58 1013.97 1014.37 1014.76 1015.13 1015.46 1015.73 1015.94 1016.08 1016.17 1016.22 1016.23 1016.23 1016.21 1016.19 1016.17 1016.15 1016.14 1016.16 1016.21 1016.30 1016.45 1016.67 1016.94 1017.27 1017.61 1017.95 1018.26 1018.51 1018.70 1018.84 1018.93 1018.99 1019.06 1019.13 1019.22 1019.31 1019.39
1013.55 1013.83 1014.12 1014.41 1014.70 1014.97 1015.21 1015.42 1015.60 1015.75 1015.88 1015.98 1016.05 1016.11 1016.15 1016.17 1016.17 1016.17 1016.18 1016.22 1016.30 1016.45 1016.66 1016.93 1017.25 1017.59 1017.93 1018.22 1018.46 1018.63 1018.74 1018.80 1018.84 1018.88 1018.93 1019.01 1019.10 1019.18
1013.60 1013.77 1013.94 1014.13 1014.33 1014.53 1014.73 1014.93 1015.14 1015.34 1015.54 1015.73 1015.90 1016.04 1016.15 1016.23 1016.27 1016.30 1016.33 1016.37 1016.46 1016.60 1016.81 1017.08 1017.38 1017.71 1018.03 1018.30 1018.51 1018.65 1018.73 1018.76 1018.77 1018.78 1018.80 1018.85 1018.93 1019.01
1013.74 1013.79 1013.86 1013.95 1014.05 1014.18 1014.34 1014.54 1014.76 1015.00 1015.27 1015.53 1015.78 1016.01 1016.20 1016.34 1016.44 1016.51 1016.57 1016.63 1016.73 1016.88 1017.08 1017.34 1017.63 1017.94 1018.23 1018.47 1018.66 1018.77 1018.82 1018.82 1018.79 1018.76 1018.76 1018.78 1018.84 1018.90
1013.94 1013.91 1013.89 1013.89 1013.92 1013.99 1014.11 1014.28 1014.50 1014.78 1015.08 1015.40 1015.72 1016.02 1016.28 1016.48 1016.64 1016.76 1016.85 1016.95 1017.06 1017.21 1017.41 1017.66 1017.94 1018.22 1018.49 1018.72 1018.88 1018.97 1018.99 1018.97 1018.92 1018.86 1018.83 1018.82 1018.85 1018.90
1014.21 1014.11 1014.03 1013.96 1013.93 1013.96 1014.04 1014.19 1014.40 1014.67 1015.00 1015.35 1015.71 1016.05 1016.36 1016.61 1016.82 1016.99 1017.12 1017.25 1017.38 1017.54 1017.75 1017.99 1018.25 1018.52 1018.77 1018.98 1019.14 1019.22 1019.24 1019.20 1019.14 1019.06 1019.01 1018.98 1018.98 1019.00
1014.53 1014.40 1014.28 1014.17 1014.11 1014.09 1014.14 1014.25 1014.44 1014.70 1015.01 1015.36 1015.73 1016.09 1016.42 1016.72 1016.96 1017.16 1017.33 1017.49 1017.65 1017.83 1018.03 1018.27 1018.53 1018.79 1019.04 1019.25 1019.40 1019.49 1019.52 1019.49 1019.43 1019.36 1019.29 1019.23 1019.21 1019.21
1014.92 1014.77 1014.63 1014.50 1014.41 1014.37 1014.38 1014.46 1014.62 1014.84 1015.12 1015.45 1015.80 1016.15 1016.48 1016.79 1017.05 1017.28 1017.48 1017.66 1017.84 1018.03 1018.25 1018.49 1018.74 1019.00 1019.25 1019.47 1019.64 1019.76 1019.81 1019.81 1019.78 1019.71 1019.64 1019.57 1019.52 1019.49
1015.35 1015.20 1015.05 1014.92 1014.81 1014.75 1014.74 1014.79 1014.90 1015.08 1015.32 1015.60 1015.91 1016.24 1016.56 1016.85 1017.13 1017.37 1017.58 1017.78 1017.97 1018.18 1018.40 1018.63 1018.89 1019.15 1019.41 1019.65 1019.85 1020.00 1020.09 1020.14 1020.13 1020.09 1020.03 1019.95 1019.88 1019.82
1015.82 1015.67 1015.52 1015.39 1015.28 1015.21 1015.17 1015.20 1015.27 1015.41 1015.59 1015.83 1016.10 1016.38 1016.67 1016.95 1017.22 1017.46 1017.68 1017.89 1018.09 1018.29 1018.50 1018.74 1018.99 1019.25 1019.52 1019.78 1020.01 1020.20 1020.34 1020.43 1020.47 1020.47 1020.42 1020.36 1020.27 1020.18
1016.32 1016.16 1016.01 1015.88 1015.77 1015.69 1015.65 1015.65 1015.70 1015.80 1015.94 1016.14 1016.36 1016.61 1016.87 1017.13 1017.37 1017.60 1017.82 1018.02 1018.21 1018.41 1018.61 1018.83 1019.07 1019.32 1019.59 1019.86 1020.12 1020.35 1020.55 1020.69 1020.78 1020.82 1020.80 1020.75 1020.66 1020.55
1016.81 1016.64 1016.49 1016.36 1016.26 1016.18 1016.13 1016.13 1016.16 1016.24 1016.36 1016.51 1016.71 1016.92 1017.15 1017.39 1017.61 1017.83 1018.02 1018.21 1018.38 1018.55 1018.73 1018.93 1019.15 1019.39 1019.66 1019.93 1020.21 1020.47 1020.71 1020.90 1021.05 1021.13 1021.15 1021.12 1021.03 1020.92
1017.28 1017.11 1016.95 1016.82 1016.71 1016.64 1016.60 1016.60 1016.63 1016.70 1016.81 1016.95 1017.12 1017.32 1017.52 1017.73 1017.94 1018.13 1018.30 1018.46 1018.61 1018.76 1018.91 1019.07 1019.26 1019.48 1019.73 1020.00 1020.29 1020.57 1020.84 1021.08 1021.26 1021.39 1021.45 1021.45 1021.39 1021.28
1017.72 1017.53 1017.37 1017.23 1017.13 1017.07 1017.04 1017.05 1017.09 1017.17 1017.28 1017.42 1017.58 1017.76 1017.95 1018.14 1018.32 1018.49 1018.64 1018.78 1018.90 1019.01 1019.13 1019.27 1019.43 1019.62 1019.84 1020.10 1020.38 1020.67 1020.96 1021.22 1021.44 1021.61 1021.71 1021.74 1021.71 1021.63
1018.13 1017.93 1017.75 1017.62 1017.52 1017.46 1017.45 1017.47 1017.53 1017.62 1017.73 1017.88 1018.04 1018.21 1018.38 1018.56 1018.72 1018.87 1019.00 1019.12 1019.22 1019.31 1019.41 1019.51 1019.65 1019.81 1020.01 1020.25 1020.52 1020.80 1021.09 1021.36 1021.60 1021.80 1021.93 1022.00 1022.00 1021.95
1018.50 1018.29 1018.12 1017.98 1017.89 1017.84 1017.83 1017.86 1017.93 1018.03 1018.16 1018.30 1018.46 1018.62 1018.78 1018.94 1019.09 1019.23 1019.35 1019.45 1019.54 1019.62 1019.71 1019.81 1019.93 1020.07 1020.25 1020.47 1020.72 1020.98 1021.25 1021.52 1021.76 1021.96 1022.11 1022.20 1022.23 1022.21
1018.84 1018.64 1018.46 1018.33 1018.24 1018.20 1018.20 1018.24 1018.31 1018.41 1018.53 1018.67 1018.82 1018.97 1019.12 1019.26 1019.40 1019.53 1019.64 1019.75 1019.84 1019.93 1020.02 1020.13 1020.25 1020.39 1020.56 1020.75 1020.97 1021.21 1021.45 1021.69 1021.91 1022.09 1022.24 1022.34 1022.40 1022.40
1019.14 1018.96 1018.81 1018.69 1018.61 1018.57 1018.57 1018.61 1018.67 1018.76 1018.87 1018.99 1019.11 1019.24 1019.38 1019.50 1019.63 1019.75 1019.87 1019.98 1020.10 1020.21 1020.33 1020.45 1020.59 1020.74 1020.90 1021.08 1021.27 1021.47 1021.67 1021.87 1022.04 1022.20 1022.33 1022.41 1022.46 1022.48
1019.40 1019.26 1019.14 1019.04 1018.98 1018.95 1018.95 1018.97 1019.03 1019.09 1019.18 1019.27 1019.36 1019.46 1019.56 1019.67 1019.78 1019.90 1020.02 1020.16 1020.29 1020.44 1020.59 1020.75 1020.91 1021.07 1021.24 1021.41 1021.58 1021.73 1021.89 1022.03 1022.15 1022.25 1022.34 1022.39 1022.43 1022.43
1019.58 1019.50 1019.43 1019.37 1019.33 1019.32 1019.32 1019.34 1019.37 1019.42 1019.47 1019.52 1019.58 1019.64 1019.71 1019.79 1019.88 1019.99 1020.12 1020.26 1020.43 1020.60 1020.79 1020.98 1021.17 1021.35 1021.53 1021.69 1021.83 1021.95 1022.05 1022.13 1022.19 1022.24 1022.27 1022.28 1022.28 1022.26
1019.66 1019.65 1019.65 1019.64 1019.64 1019.65 1019.67 1019.69 1019.71 1019.73 1019.75 1019.76 1019.78 1019.80 1019.84 1019.89 1019.95 1020.05 1020.17 1020.32 1020.50 1020.70 1020.90 1021.12 1021.33 1021.53 1021.71 1021.85 1021.97 1022.06 1022.12 1022.15 1022.15 1022.14 1022.12 1022.08 1022.03 1021.98
Thickness
5697 5697 5697 5697 5697 5698 5698 5697 5692 5689 5692 5697 5698 5700 5700 5701 5702 5703 5705 5703 5702 5700 5699 5697 5696 5695 5694 5693 5692 5691 5689 5688 5687 5686 5685 5684 5683 5683
5690 5691 5691 5691 5691 5691 5692 5691 5691 5689 5687 5690 5691 5693 5693 5694 5694 5696 5697 5696 5695 5694 5693 5692 5691 5690 5689 5688 5687 5686 5684 5683 5681 5680 5679 5678 5677 5676
5684 5684 5684 5685 5685 5685 5685 5685 5685 5684 5681 5682 5685 5686 5686 5687 5688 5689 5690 5690 5689 5688 5687 5686 5685 5684 5684 5683 5682 5680 5679 5678 5676 5675 5673 5672 5671 5670
5677 5677 5677 5678 5678 5678 5678 5678 5679 5679 5677 5675 5676 5677 5678 5680 5681 5682 5682 5683 5684 5681 5680 5680 5679 5679 5678 5677 5676 5675 5674 5672 5671 5669 5667 5666 5665 5664
5671 5670 5671 5671 5670 5671 5672 5672 5673 5673 5673 5671 5669 5669 5670 5672 5673 5673 5675 5676 5676 5674 5674 5673 5673 5673 5672 5671 5670 5669 5668 5667 5665 5664 5662 5660 5659 5658
5664 5664 5664 5664 5664 5664 5665 5666 5666 5665 5665 5663 5662 5662 5662 5663 5665 5665 5666 5668 5669 5669 5668 5667 5667 5666 5665 5665 5664 5663 5662 5661 5659 5658 5656 5654 5653 5652
5657 5657 5657 5657 5656 5657 5658 5659 5659 5658 5657 5657 5656 5656 5656 5656 5658 5659 5659 5660 5661 5662 5663 5662 5662 5661 5659 5657 5656 5655 5655 5654 5653 5652 5650 5649 5647 5645
5647 5649 5649 5650 5648 5649 5649 5650 5652 5653 5652 5651 5651 5651 5651 5652 5652 5654 5654 5655 5653 5654 5655 5654 5654 5653 5651 5649 5647 5647 5647 5646 5646 5645 5643 5642 5640 5638
5640 5641 5642 5642 5643 5645 5644 5643 5644 5644 5646 5650 5648 5647 5647 5648 5648 5648 5649 5649 5647 5646 5647 5645 5645 5643 5641 5638 5638 5638 5638 5638 5637 5636 5635 5634 5632 5631
5634 5635 5636 5636 5637 5639 5641 5641 5640 5639 5641 5644 5644 5643 5643 5644 5645 5645 5644 5642 5641 5640 5641 5639 5637 5635 5633 5631 5629 5629 5629 5629 5628 5628 5627 5625 5624 5622
5628 5629 5630 5630 5628 5631 5635 5634 5632 5631 5630 5632 5633 5633 5633 5635 5637 5639 5639 5638 5635 5634 5635 5635 5631 5629 5627 5625 5621 5620 5620 5619 5619 5619 5618 5617 5616 5615
5622 5622 5621 5622 5622 5625 5630 5629 5627 5626 5627 5627 5627 5627 5629 5629 5630 5634 5635 5635 5633 5630 5629 5630 5628 5627 5622 5618 5616 5615 5613 5611 5610 5609 5609 5608 5608 5609
5617 5616 5615 5615 5617 5620 5623 5624 5622 5623 5624 5624 5623 5623 5624 5624 5625 5626 5628 5629 5629 5626 5625 5626 5626 5625 5622 5615 5610 5608 5607 5606 5604 5602 5600 5599 5599 5599
5612 5611 5609 5609 5611 5613 5615 5614 5615 5617 5619 5618 5617 5617 5617 5617 5618 5619 5620 5620 5621 5620 5620 5622 5622 5621 5619 5614 5607 5603 5600 5599 5597 5596 5594 5592 5591 5589
5607 5604 5605 5605 5607 5608 5608 5609 5612 5614 5614 5613 5611 5611 5611 5612 5613 5613 5614 5613 5614 5613 5615 5616 5617 5617 5616 5611 5605 5600 5597 5593 5591 5590 5589 5587 5586 5584
5605 5602 5602 5602 5604 5604 5605 5607 5609 5609 5610 5609 5607 5607 5608 5608 5609 5610 5610 5610 5609 5607 5607 5609 5609 5609 5607 5604 5601 5596 5594 5590 5586 5586 5585 5583 5580 5578
5605 5605 5605 5605 5604 5604 5604 5604 5604 5605 5605 5605 5605 5605 5605 5605 5605 5606 5606 5607 5606 5603 5602 5601 5600 5599 5597 5597 5594 5592 5589 5586 5583 5582 5581 5579 5576 5573
5605 5605 5603 5602 5601 5601 5602 5601 5601 5601 5602 5602 5603 5603 5603 5603 5603 5603 5604 5603 5602 5600 5599 5598 5597 5597 5595 5589 5583 5586 5585 5583 5580 5579 5578 5577 5574 5569
5606 5604 5602 5601 5600 5600 5600 5600 5599 5599 5600 5601 5601 5601 5601 5601 5601 5601 5601 5601 5600 5598 5596 5596 5597 5597 5597 5593 5582 5578 5580 5579 5578 5577 5575 5573 5571 5567
5606 5605 5603 5601 5600 5600 5599 5599 5599 5599 5599 5600 5600 5600 5600 5600 5600 5600 5599 5599 5598 5597 5595 5594 5593 5594 5594 5591 5586 5578 5574 5576 5576 5576 5573 5572 5569 5564
5608 5606 5604 5603 5602 5601 5600 5599 5600 5600 5599 5600 5600 5599 5599 5599 5599 5599 5598 5592 5596 5596 5595 5592 5587 5585 5587 5587 5585 5580 5575 5570 5570 5571 5571 5571 5570 5569
5610 5608 5606 5605 5604 5603 5602 5601 5601 5601 5601 5601 5600 5600 5600 5600 5599 5598 5598 5597 5596 5595 5592 5590 5586 5587 5587 5587 5585 5581 5577 5573 5568 5566 5564 5563 5564 5566
5614 5612 5610 5607 5606 5605 5604 5604 5603 5603 5602 5602 5601 5601 5600 5599 5599 5599 5598 5596 5595 5593 5592 5590 5588 5587 5586 5584 5582 5580 5576 5574 5573 5570 5567 5561 5558 5556